Regional Weather Roundup
Issued by NWS

Home | Current Version | Previous Version | Text Only | Print | Product List | Glossary Off
Versions: 1 2 3 4 5 6 7 8 9 10 11 12 13 14 15 16 17 18 19 20 21 22 23 24 25 26 27 28 29 30 31 32 33 34 35 36 37 38 39 40 41 42 43 44 45 46 47 48 49 50

000
ASUS45 KSLC 151110
RWRUT

UTAH REGIONAL WEATHER ROUNDUP
NATIONAL WEATHER SERVICE SALT LAKE CITY UT
400 AM MST SUN JAN 15 2017

UTZ001>011-023>025-151200-

NORTHERN UTAH

CITY           SKY/WX    TMP DP  RH WIND       PRES   REMARKS
BRIGHAM CITY     N/A     14  11  87 CALM      30.19F
HILL AFB       PTCLDY    22  14  73 E23G29    30.15F WCI   6
LOGAN          FOG       10   8  92 CALM      30.23F VSB<1/4
OGDEN          PTCLDY    19  18  95 CALM      30.17F FOG
SALT LAKE CITY CLOUDY    29  25  85 N7        30.17F WCI  22
TOOELE VALLEY  CLOUDY    30  28  93 CALM      30.18F
WENDOVER       CLEAR     23  19  86 CALM      30.19F
HEBER CITY     CLOUDY     9   7  92 CALM      30.17S FOG
WEST JORDAN    CLEAR     25  25 100 CALM      30.17F

$$

UTZ011>015-024>027-151200-

CENTRAL/NORTHEAST UTAH

CITY           SKY/WX    TMP DP  RH WIND       PRES   REMARKS
PROVO AIRPORT  CLOUDY    29  26  89 W7        30.17S WCI  22
MOAB/CANYONLAN LGT RAIN  37  36  96 NW6       30.03F WCI  32
DELTA          CLOUDY    30  28  93 NW7       30.16S WCI  23
PRICE          CLOUDY    35  26  69 N10       30.04F WCI  27
RICHFIELD        N/A     30  30 100 NE3       30.14F FOG
ROOSEVELT      CLOUDY    30  23  74 CALM      30.20R
VERNAL         CLOUDY    29  25  85 S5        30.17R WCI  24

$$

UTZ013>016-019>022-027-151200-

SOUTHERN UTAH

CITY           SKY/WX    TMP DP  RH WIND       PRES   REMARKS
BRYCE CANYON   FLURRIES  26  24  92 NW6       30.02F WCI  19
CEDAR CITY     CLOUDY    29  27  92 N10       30.08S WCI  20
MILFORD        CLOUDY    30  27  88 N14       30.12F WCI  19
ST GEORGE      CLOUDY    43  32  65 S6        30.05F
HANKSVILLE     CLOUDY    37  36  93 MISG      30.08F
KANAB          CLOUDY    41  36  81 N5        30.05R
BLANDING       CLOUDY    39  37  95 NE7       30.04F WCI  34

$$

REGIONAL REPORTS     COLORADO/ARIZONA

CITY           SKY/WX    TMP DP  RH WIND       PRES   REMARKS
CRAIG, CO      CLOUDY    26  23  88 N6        30.15S WCI  19
GRAND JUNCTION CLOUDY    34  34 100 CALM      30.05F
RIFLE, CO      CLOUDY    31  29  92 CALM      30.09F
MONTROSE, CO   CLOUDY    33  33 100 CALM      30.07F
CORTEZ, CO     CLOUDY    41  37  86 SW6       29.96F
COLORADO CITY  CLOUDY    37  32  81 NW7       30.03S WCI  32
PAGE, AZ       CLOUDY    42  36  79 CALM      29.99F
GRAND CANYON   CLOUDY    34  34 100 NW3       29.99S
KINGMAN, AZ    PTCLDY    40  38  93 E9        29.97F WCI  34
FLAGSTAFF, AZ  FOG       31  31 100 N5        29.97S VSB 3/4 WCI  26

$$

REGIONAL REPORTS    NEVADA/IDAHO/WYOMING

CITY           SKY/WX    TMP DP  RH WIND       PRES   REMARKS
LAS VEGAS, NV  MOCLDY    50  31  48 NE10      29.99F
ELY, NY        CLOUDY    25  21  85 NE6       30.13S WCI  18
ELKO, NV       CLOUDY    26  21  81 E6        30.17S WCI  19
POCATELLO, ID  CLOUDY     2  -1  88 W5        30.25F WCI  -8
BURLEY, ID     PTCLDY     9   4  80 NW5       30.25S WCI   1
FORT BRIDGER,  FOG        6   5  95 CALM      30.19F VSB 1/4
EVANSTON, WY   CLOUDY     7   2  80 N5        30.13F WCI  -2
ROCK SPRINGS,  FOG       11   7  84 NW5       30.17F VSB 1/4 WCI   3

$$



USA.gov is the U.S. government's official web portal to all federal, state and local government web resources and services.